START_TIME,STEP,MOV.,AL01,t_acc.,AL02,t_acc.,E37,t_acc.,H21,t_acc.
1979-07-12 06:00:34.700 ,1,1,1.,24.0,3.,24.0,0.,24.0,0.,24.0
1979-07-12 06:00:58.700 ,2,1,2.,24.0,0.,24.0,0.,24.0,0.,24.0
1979-07-12 06:01:22.700 ,6,1,5.,24.0,1.,24.0,0.,24.0,0.,24.0
1979-07-12 06:01:46.700 ,5,1,23.,24.0,4.,24.0,0.,24.0,0.,24.0
1979-07-12 06:02:10.700 ,1,1,7.,24.0,0.,24.0,0.,24.0,0.,24.0
1979-07-12 06:02:34.700 ,2,1,7.,24.0,0.,24.0,0.,24.0,0.,24.0
1979-07-12 06:02:58.700 ,6,1,4.,24.0,1.,24.0,0.,24.0,0.,24.0
1979-07-12 06:03:22.700 ,5,1,16.,24.0,0.,24.0,0.,24.0,0.,24.0
1979-07-12 06:03:46.700 ,1,1,7.,24.0,2.,24.0,0.,24.0,0.,24.0
1979-07-12 06:04:10.700 ,2,1,2.,24.0,1.,24.0,0.,24.0,0.,24.0
1979-07-12 06:04:34.700 ,6,1,6.,24.0,1.,24.0,0.,24.0,0.,24.0
1979-07-12 06:04:58.700 ,5,1,18.,24.0,1.,24.0,0.,24.0,0.,24.0
1979-07-12 06:05:22.700 ,1,1,6.,24.0,0.,24.0,0.,24.0,0.,24.0
1979-07-12 06:05:46.700 ,0,0,1.,24.0,1.,24.0,0.,24.0,0.,24.0
1979-07-12 06:06:10.700 ,0,0,6.,24.0,5.,24.0,0.,24.0,0.,24.0
1979-07-12 06:06:34.700 ,5,1,16.,24.0,3.,24.0,0.,24.0,0.,24.0
1979-07-12 06:06:58.700 ,5,0,7.,24.0,2.,24.0,0.,24.0,0.,24.0
1979-07-12 06:07:22.700 ,4,1,10.,24.0,2.,24.0,0.,24.0,0.,24.0
1979-07-12 06:07:46.700 ,4,0,7.,24.0,1.,24.0,0.,24.0,0.,24.0
1979-07-12 06:08:10.700 ,3,1,10.,24.0,0.,24.0,0.,24.0,0.,24.0
1979-07-12 06:08:34.700 ,3,0,8.,24.0,6.,24.0,0.,24.0,0.,24.0
1979-07-12 06:08:58.700 ,2,1,12.,24.0,2.,24.0,0.,24.0,0.,24.0
1979-07-12 06:09:22.700 ,2,0,5.,24.0,1.,24.0,0.,24.0,0.,24.0
1979-07-12 06:09:46.700 ,1,1,6.,24.0,0.,24.0,0.,24.0,0.,24.0
1979-07-12 06:10:10.700 ,1,0,5.,24.0,1.,24.0,0.,24.0,0.,24.0
1979-07-12 06:10:34.700 ,0,1,6.,24.0,0.,24.0,0.,24.0,0.,24.0
1979-07-12 06:10:58.700 ,0,0,2.,24.0,1.,24.0,0.,24.0,0.,24.0
1979-07-12 06:11:22.700 ,0,1,4.,24.0,2.,24.0,0.,24.0,0.,24.0
1979-07-12 06:11:46.700 ,0,0,5.,24.0,0.,24.0,0.,24.0,0.,24.0
1979-07-12 06:12:10.700 ,1,1,2.,24.0,0.,24.0,0.,24.0,0.,24.0
1979-07-12 06:12:34.700 ,1,0,5.,24.0,1.,24.0,0.,24.0,0.,24.0
1979-07-12 06:12:58.700 ,2,1,6.,24.0,1.,24.0,0.,24.0,0.,24.0
1979-07-12 06:13:22.700 ,2,0,3.,24.0,2.,24.0,0.,24.0,0.,24.0
1979-07-12 06:13:46.700 ,3,1,9.,24.0,1.,24.0,0.,24.0,0.,24.0
1979-07-12 06:14:10.700 ,3,0,14.,24.0,1.,24.0,0.,24.0,0.,24.0
1979-07-12 06:14:34.700 ,4,1,7.,24.0,0.,24.0,0.,24.0,0.,24.0
1979-07-12 06:14:58.700 ,4,0,15.,24.0,1.,24.0,0.,24.0,0.,24.0
1979-07-12 06:15:22.700 ,5,1,22.,24.0,3.,24.0,0.,24.0,0.,24.0
1979-07-12 06:15:46.700 ,5,0,24.,24.0,8.,24.0,0.,24.0,0.,24.0
1979-07-12 06:16:10.700 ,6,1,25.,24.0,7.,24.0,0.,24.0,0.,24.0
1979-07-12 06:16:34.700 ,6,0,10.,24.0,4.,24.0,0.,24.0,0.,24.0
1979-07-12 06:16:58.700 ,7,1,17.,24.0,3.,24.0,0.,24.0,0.,24.0
1979-07-12 06:17:22.700 ,7,0,35.,24.0,0.,24.0,0.,24.0,0.,24.0
1979-07-12 06:17:46.700 ,7,1,25.,24.0,0.,24.0,0.,24.0,0.,24.0
1979-07-12 06:18:10.700 ,7,0,28.,24.0,0.,24.0,0.,24.0,0.,24.0
1979-07-12 06:18:34.700 ,6,1,18.,24.0,0.,24.0,0.,24.0,0.,24.0
1979-07-12 06:18:58.700 ,6,0,18.,24.0,3.,24.0,0.,24.0,0.,24.0
1979-07-12 06:19:22.700 ,5,1,19.,24.0,7.,24.0,0.,24.0,0.,24.0
1979-07-12 06:19:46.700 ,5,0,12.,24.0,5.,24.0,0.,24.0,0.,24.0
1979-07-12 06:20:10.700 ,4,1,18.,24.0,5.,24.0,0.,24.0,0.,24.0
1979-07-12 06:20:34.700 ,4,0,28.,24.0,3.,24.0,0.,24.0,0.,24.0
1979-07-12 06:20:58.700 ,3,1,25.,24.0,9.,24.0,0.,24.0,0.,24.0
1979-07-12 06:21:22.700 ,3,0,11.,24.0,2.,24.0,0.,24.0,0.,24.0
1979-07-12 06:21:46.700 ,2,1,13.,24.0,1.,24.0,0.,24.0,0.,24.0
1979-07-12 06:22:10.700 ,2,0,9.,24.0,2.,24.0,0.,24.0,0.,24.0
1979-07-12 06:22:34.700 ,1,1,9.,24.0,1.,24.0,0.,24.0,0.,24.0
1979-07-12 06:22:58.700 ,1,0,9.,24.0,1.,24.0,0.,24.0,0.,24.0
1979-07-12 06:23:22.700 ,0,1,11.,24.0,3.,24.0,0.,24.0,0.,24.0
1979-07-12 06:23:46.700 ,0,0,6.,24.0,3.,24.0,0.,24.0,0.,24.0
1979-07-12 06:24:10.700 ,0,1,6.,24.0,1.,24.0,0.,24.0,0.,24.0
1979-07-12 06:24:34.700 ,0,0,10.,24.0,2.,24.0,0.,24.0,0.,24.0
1979-07-12 06:24:58.700 ,1,1,10.,24.0,3.,24.0,0.,24.0,0.,24.0
1979-07-12 06:25:22.700 ,1,0,10.,24.0,1.,24.0,0.,24.0,0.,24.0
1979-07-12 06:25:46.700 ,2,1,12.,24.0,2.,24.0,0.,24.0,0.,24.0
1979-07-12 06:26:10.700 ,2,0,16.,24.0,6.,24.0,0.,24.0,0.,24.0
1979-07-12 06:26:34.700 ,3,1,4.,24.0,3.,24.0,0.,24.0,0.,24.0
1979-07-12 06:26:58.700 ,3,0,12.,24.0,3.,24.0,0.,24.0,0.,24.0
1979-07-12 06:27:22.700 ,4,1,11.,24.0,6.,24.0,0.,24.0,0.,24.0
1979-07-12 06:27:46.700 ,4,0,24.,24.0,5.,24.0,0.,24.0,0.,24.0
1979-07-12 06:28:10.700 ,5,1,28.,24.0,9.,24.0,0.,24.0,0.,24.0
1979-07-12 06:28:34.700 ,5,0,50.,24.0,12.,24.0,0.,24.0,0.,24.0
1979-07-12 06:28:58.700 ,6,1,48.,24.0,7.,24.0,0.,24.0,0.,24.0
1979-07-12 06:29:22.700 ,6,0,25.,24.0,7.,24.0,0.,24.0,0.,24.0
1979-07-12 06:29:46.700 ,7,1,23.,24.0,4.,24.0,0.,24.0,0.,24.0
1979-07-12 06:30:10.700 ,7,0,22.,24.0,0.,24.0,0.,24.0,0.,24.0
1979-07-12 06:30:34.700 ,7,1,31.,24.0,0.,24.0,0.,24.0,0.,24.0
1979-07-12 06:30:58.700 ,7,0,21.,24.0,0.,24.0,0.,24.0,0.,24.0
1979-07-12 06:31:22.700 ,6,1,35.,24.0,3.,24.0,0.,24.0,0.,24.0
1979-07-12 06:31:46.700 ,6,0,36.,24.0,12.,24.0,0.,24.0,0.,24.0
1979-07-12 06:32:10.700 ,5,1,33.,24.0,7.,24.0,0.,24.0,0.,24.0
1979-07-12 06:32:34.700 ,5,0,47.,24.0,12.,24.0,0.,24.0,0.,24.0
1979-07-12 06:32:58.700 ,4,1,45.,24.0,7.,24.0,0.,24.0,0.,24.0
1979-07-12 06:33:22.700 ,4,0,30.,24.0,5.,24.0,0.,24.0,0.,24.0
1979-07-12 06:33:46.700 ,3,1,31.,24.0,6.,24.0,0.,24.0,0.,24.0
1979-07-12 06:34:10.700 ,3,0,20.,24.0,4.,24.0,0.,24.0,0.,24.0
1979-07-12 06:34:34.700 ,2,1,27.,24.0,5.,24.0,0.,24.0,0.,24.0
1979-07-12 06:34:58.700 ,2,0,22.,24.0,3.,24.0,0.,24.0,0.,24.0
1979-07-12 06:35:22.700 ,1,1,20.,24.0,5.,24.0,0.,24.0,0.,24.0
1979-07-12 06:35:46.700 ,1,0,23.,24.0,6.,24.0,0.,24.0,0.,24.0
1979-07-12 06:36:10.700 ,0,1,20.,24.0,5.,24.0,0.,24.0,0.,24.0
1979-07-12 06:36:34.700 ,0,0,8.,24.0,2.,24.0,0.,24.0,0.,24.0
1979-07-12 06:36:58.700 ,0,1,16.,24.0,3.,24.0,0.,24.0,0.,24.0
1979-07-12 06:37:22.700 ,0,0,32.,24.0,5.,24.0,0.,24.0,0.,24.0
1979-07-12 06:37:46.700 ,1,1,17.,24.0,3.,24.0,0.,24.0,0.,24.0
1979-07-12 06:38:10.700 ,1,0,30.,24.0,8.,24.0,0.,24.0,0.,24.0
1979-07-12 06:38:34.700 ,2,1,34.,24.0,3.,24.0,0.,24.0,0.,24.0
1979-07-12 06:38:58.700 ,2,0,55.,24.0,8.,24.0,0.,24.0,0.,24.0
1979-07-12 06:39:22.700 ,3,1,45.,24.0,9.,24.0,0.,24.0,0.,24.0
1979-07-12 06:39:46.700 ,3,0,47.,24.0,8.,24.0,0.,24.0,0.,24.0
1979-07-12 06:40:10.700 ,4,1,54.,24.0,4.,24.0,0.,24.0,0.,24.0
1979-07-12 06:40:34.700 ,4,0,78.,24.0,11.,24.0,0.,24.0,0.,24.0
1979-07-12 06:40:58.700 ,5,1,78.,24.0,10.,24.0,0.,24.0,0.,24.0
1979-07-12 06:41:22.700 ,5,0,82.,24.0,21.,24.0,0.,24.0,0.,24.0
1979-07-12 06:41:46.700 ,6,1,100.,24.0,18.,24.0,0.,24.0,0.,24.0
1979-07-12 06:42:10.700 ,6,0,72.,24.0,10.,24.0,0.,24.0,0.,24.0
1979-07-12 06:42:34.700 ,7,0,63.,24.0,18.,24.0,0.,24.0,0.,24.0
1979-07-12 06:42:58.700 ,7,0,23.,24.0,0.,24.0,0.,24.0,0.,24.0
1979-07-12 06:43:22.700 ,5,1,51.,24.0,5.,24.0,0.,24.0,0.,24.0
1979-07-12 06:43:46.700 ,1,1,49.,24.0,7.,24.0,0.,24.0,0.,24.0
1979-07-12 06:44:10.700 ,2,1,30.,24.0,4.,24.0,0.,24.0,0.,24.0
1979-07-12 06:44:34.700 ,6,1,78.,24.0,23.,24.0,0.,24.0,0.,24.0
1979-07-12 06:44:58.700 ,5,1,68.,24.0,7.,24.0,0.,24.0,0.,24.0
1979-07-12 06:45:22.700 ,1,1,59.,24.0,9.,24.0,0.,24.0,0.,24.0
1979-07-12 06:45:46.700 ,2,1,36.,24.0,8.,24.0,0.,24.0,0.,24.0
1979-07-12 06:46:10.700 ,6,1,86.,24.0,10.,24.0,0.,24.0,0.,24.0
1979-07-12 06:46:34.700 ,5,1,46.,24.0,11.,24.0,0.,24.0,0.,24.0
1979-07-12 06:46:58.700 ,1,1,54.,24.0,13.,24.0,0.,24.0,0.,24.0
1979-07-12 06:47:22.700 ,2,1,51.,24.0,9.,24.0,0.,24.0,0.,24.0
1979-07-12 06:47:46.700 ,6,1,72.,24.0,11.,24.0,0.,24.0,0.,24.0
1979-07-12 06:48:10.700 ,5,1,62.,24.0,12.,24.0,0.,24.0,0.,24.0
1979-07-12 06:48:34.700 ,1,1,66.,24.0,8.,24.0,0.,24.0,0.,24.0
1979-07-12 06:48:58.700 ,2,1,63.,24.0,10.,24.0,0.,24.0,0.,24.0
1979-07-12 06:49:22.700 ,6,1,80.,24.0,10.,24.0,0.,24.0,0.,24.0
1979-07-12 06:49:46.700 ,5,1,82.,24.0,9.,24.0,0.,24.0,0.,24.0
1979-07-12 06:50:10.700 ,1,1,44.,24.0,15.,24.0,0.,24.0,0.,24.0
1979-07-12 06:50:34.700 ,2,1,56.,24.0,9.,24.0,0.,24.0,0.,24.0
1979-07-12 06:50:58.700 ,6,1,68.,24.0,16.,24.0,0.,24.0,0.,24.0
1979-07-12 06:51:22.700 ,5,1,84.,24.0,10.,24.0,0.,24.0,0.,24.0
1979-07-12 06:51:46.700 ,1,1,46.,24.0,9.,24.0,0.,24.0,0.,24.0
1979-07-12 06:52:10.700 ,2,1,40.,24.0,7.,24.0,0.,24.0,0.,24.0
1979-07-12 06:52:34.700 ,6,1,84.,24.0,14.,24.0,0.,24.0,0.,24.0
1979-07-12 06:52:58.700 ,5,1,74.,24.0,5.,24.0,0.,24.0,0.,24.0
1979-07-12 06:53:22.700 ,0,0,,0,,0,,0,,0
1979-07-12 06:54:12.500 ,0,0,74.,24.0,13.,24.0,0.,24.0,0.,24.0
1979-07-12 06:54:34.700 ,5,1,64.,24.0,9.,24.0,0.,24.0,0.,24.0
1979-07-12 06:54:58.700 ,5,0,100.,24.0,18.,24.0,0.,24.0,0.,24.0
1979-07-12 06:55:22.700 ,4,1,94.,24.0,24.,24.0,0.,24.0,0.,24.0
1979-07-12 06:55:46.700 ,4,0,72.,24.0,12.,24.0,0.,24.0,0.,24.0
1979-07-12 06:56:10.700 ,3,1,60.,24.0,17.,24.0,0.,24.0,0.,24.0
1979-07-12 06:56:34.700 ,3,0,66.,24.0,10.,24.0,0.,24.0,0.,24.0
1979-07-12 06:56:58.700 ,2,1,68.,24.0,13.,24.0,0.,24.0,0.,24.0
1979-07-12 06:57:22.700 ,2,0,60.,24.0,8.,24.0,0.,24.0,0.,24.0
1979-07-12 06:57:46.700 ,1,1,53.,24.0,13.,24.0,0.,24.0,0.,24.0
1979-07-12 06:58:10.700 ,1,0,48.,24.0,10.,24.0,0.,24.0,0.,24.0
1979-07-12 06:58:34.700 ,0,1,51.,24.0,8.,24.0,0.,24.0,0.,24.0
1979-07-12 06:58:58.700 ,0,0,25.,24.0,10.,24.0,0.,24.0,0.,24.0
1979-07-12 06:59:22.700 ,0,1,47.,24.0,11.,24.0,0.,24.0,0.,24.0
1979-07-12 06:59:46.700 ,0,0,33.,24.0,4.,24.0,0.,24.0,0.,24.0
1979-07-12 07:00:10.700 ,1,1,55.,24.0,6.,24.0,0.,24.0,0.,24.0
1979-07-12 07:00:34.700 ,1,0,55.,24.0,17.,24.0,0.,24.0,0.,24.0
1979-07-12 07:00:58.700 ,2,1,76.,24.0,15.,24.0,0.,24.0,0.,24.0
1979-07-12 07:01:22.700 ,2,0,66.,24.0,10.,24.0,0.,24.0,0.,24.0
1979-07-12 07:01:46.700 ,3,1,64.,24.0,14.,24.0,0.,24.0,0.,24.0
1979-07-12 07:02:10.700 ,3,0,63.,24.0,7.,24.0,0.,24.0,0.,24.0
1979-07-12 07:02:34.700 ,4,1,50.,24.0,12.,24.0,0.,24.0,0.,24.0
1979-07-12 07:02:58.700 ,4,0,88.,24.0,13.,24.0,0.,24.0,0.,24.0
1979-07-12 07:03:22.700 ,5,1,98.,24.0,15.,24.0,0.,24.0,0.,24.0
1979-07-12 07:03:46.700 ,5,0,86.,24.0,14.,24.0,0.,24.0,0.,24.0
1979-07-12 07:04:10.700 ,6,1,86.,24.0,21.,24.0,0.,24.0,0.,24.0
1979-07-12 07:04:34.700 ,6,0,100.,24.0,18.,24.0,0.,24.0,0.,24.0
1979-07-12 07:04:58.700 ,7,1,64.,24.0,12.,24.0,0.,24.0,0.,24.0
1979-07-12 07:05:22.700 ,7,0,29.,24.0,0.,24.0,0.,24.0,0.,24.0
1979-07-12 07:05:46.700 ,7,1,25.,24.0,0.,24.0,0.,24.0,0.,24.0
1979-07-12 07:06:10.690 ,7,0,36.,24.0,0.,24.0,0.,24.0,0.,24.0
1979-07-12 07:06:34.700 ,6,1,36.,24.0,5.,24.0,0.,24.0,0.,24.0
1979-07-12 07:06:58.700 ,6,0,76.,24.0,21.,24.0,0.,24.0,0.,24.0
1979-07-12 07:07:22.700 ,5,1,55.,24.0,16.,24.0,0.,24.0,0.,24.0
1979-07-12 07:07:46.700 ,5,0,56.,24.0,20.,24.0,0.,24.0,0.,24.0
1979-07-12 07:08:10.690 ,4,1,64.,24.0,13.,24.0,0.,24.0,0.,24.0
1979-07-12 07:08:34.700 ,4,0,64.,24.0,11.,24.0,0.,24.0,0.,24.0
1979-07-12 07:08:58.700 ,3,1,68.,24.0,15.,24.0,0.,24.0,0.,24.0
1979-07-12 07:09:22.700 ,3,0,55.,24.0,7.,24.0,0.,24.0,0.,24.0
1979-07-12 07:09:46.700 ,2,1,48.,24.0,11.,24.0,0.,24.0,0.,24.0
1979-07-12 07:10:10.700 ,2,0,44.,24.0,10.,24.0,0.,24.0,0.,24.0
1979-07-12 07:10:34.700 ,1,1,37.,24.0,8.,24.0,0.,24.0,0.,24.0
1979-07-12 07:10:58.700 ,1,0,40.,24.0,12.,24.0,0.,24.0,0.,24.0
1979-07-12 07:11:22.700 ,0,1,34.,24.0,5.,24.0,0.,24.0,0.,24.0
1979-07-12 07:11:46.700 ,0,0,35.,24.0,4.,24.0,0.,24.0,0.,24.0
1979-07-12 07:12:10.700 ,0,1,39.,24.0,7.,24.0,0.,24.0,0.,24.0
1979-07-12 07:12:34.700 ,0,0,38.,24.0,3.,24.0,0.,24.0,0.,24.0
1979-07-12 07:12:58.700 ,1,1,27.,24.0,5.,24.0,0.,24.0,0.,24.0
1979-07-12 07:13:22.700 ,1,0,33.,24.0,7.,24.0,0.,24.0,0.,24.0
1979-07-12 07:13:46.700 ,2,1,45.,24.0,4.,24.0,0.,24.0,0.,24.0
1979-07-12 07:14:10.700 ,2,0,28.,24.0,10.,24.0,0.,24.0,0.,24.0
1979-07-12 07:14:34.700 ,3,1,32.,24.0,9.,24.0,0.,24.0,0.,24.0
1979-07-12 07:14:58.700 ,3,0,37.,24.0,8.,24.0,0.,24.0,0.,24.0
1979-07-12 07:15:22.700 ,4,1,44.,24.0,6.,24.0,0.,24.0,0.,24.0
1979-07-12 07:15:46.700 ,4,0,36.,24.0,7.,24.0,0.,24.0,0.,24.0
1979-07-12 07:16:10.700 ,5,1,44.,24.0,5.,24.0,0.,24.0,0.,24.0
1979-07-12 07:16:34.700 ,5,0,64.,24.0,14.,24.0,0.,24.0,0.,24.0
1979-07-12 07:16:58.700 ,6,1,57.,24.0,13.,24.0,0.,24.0,0.,24.0
1979-07-12 07:17:22.700 ,6,0,54.,24.0,7.,24.0,0.,24.0,0.,24.0
1979-07-12 07:17:46.700 ,7,1,48.,24.0,11.,24.0,0.,24.0,0.,24.0
1979-07-12 07:18:10.700 ,7,0,24.,24.0,0.,24.0,0.,24.0,0.,24.0
1979-07-12 07:18:34.700 ,7,1,36.,24.0,0.,24.0,0.,24.0,0.,24.0
1979-07-12 07:18:58.700 ,7,0,34.,24.0,0.,24.0,0.,24.0,0.,24.0
1979-07-12 07:19:22.700 ,6,1,44.,24.0,1.,24.0,0.,24.0,0.,24.0
1979-07-12 07:19:46.700 ,6,0,66.,24.0,13.,24.0,0.,24.0,0.,24.0
1979-07-12 07:20:10.700 ,5,1,56.,24.0,10.,24.0,0.,24.0,0.,24.0
1979-07-12 07:20:34.700 ,5,0,92.,24.0,21.,24.0,0.,24.0,0.,24.0
1979-07-12 07:20:58.700 ,4,1,86.,24.0,15.,24.0,0.,24.0,0.,24.0
1979-07-12 07:21:22.700 ,4,0,66.,24.0,13.,24.0,0.,24.0,0.,24.0
1979-07-12 07:21:46.700 ,3,1,62.,24.0,12.,24.0,0.,24.0,0.,24.0
1979-07-12 07:22:10.700 ,3,0,46.,24.0,9.,24.0,0.,24.0,0.,24.0
1979-07-12 07:22:34.700 ,2,1,47.,24.0,8.,24.0,0.,24.0,0.,24.0
1979-07-12 07:22:58.700 ,2,0,37.,24.0,7.,24.0,0.,24.0,0.,24.0
1979-07-12 07:23:22.700 ,1,1,28.,24.0,3.,24.0,0.,24.0,0.,24.0
1979-07-12 07:23:46.700 ,1,0,17.,24.0,7.,24.0,0.,24.0,0.,24.0
1979-07-12 07:24:10.700 ,0,1,22.,24.0,4.,24.0,0.,24.0,0.,24.0
1979-07-12 07:24:34.700 ,0,0,11.,24.0,1.,24.0,0.,24.0,0.,24.0
1979-07-12 07:24:58.700 ,0,1,12.,24.0,4.,24.0,0.,24.0,0.,24.0
1979-07-12 07:25:22.700 ,0,0,15.,24.0,2.,24.0,0.,24.0,0.,24.0
1979-07-12 07:25:46.700 ,1,1,12.,24.0,4.,24.0,0.,24.0,0.,24.0
1979-07-12 07:26:10.700 ,1,0,23.,24.0,3.,24.0,0.,24.0,0.,24.0
1979-07-12 07:26:34.700 ,2,1,15.,24.0,7.,24.0,0.,24.0,0.,24.0
1979-07-12 07:26:58.700 ,2,0,23.,24.0,7.,24.0,0.,24.0,0.,24.0
1979-07-12 07:27:22.700 ,3,1,22.,24.0,5.,24.0,0.,24.0,0.,24.0
1979-07-12 07:27:46.700 ,3,0,40.,24.0,3.,24.0,0.,24.0,0.,24.0
1979-07-12 07:28:10.700 ,4,1,31.,24.0,3.,24.0,0.,24.0,0.,24.0
1979-07-12 07:28:34.700 ,4,0,40.,24.0,12.,24.0,0.,24.0,0.,24.0
1979-07-12 07:28:58.700 ,5,1,39.,24.0,10.,24.0,0.,24.0,0.,24.0
1979-07-12 07:29:22.700 ,5,0,84.,24.0,14.,24.0,0.,24.0,0.,24.0
1979-07-12 07:29:46.700 ,6,1,70.,24.0,8.,24.0,0.,24.0,0.,24.0
1979-07-12 07:30:10.700 ,6,0,55.,24.0,11.,24.0,0.,24.0,0.,24.0
1979-07-12 07:30:34.700 ,7,0,50.,24.0,7.,24.0,0.,24.0,0.,24.0
1979-07-12 07:30:58.700 ,7,0,30.,24.0,0.,24.0,0.,24.0,0.,24.0
1979-07-12 07:31:22.700 ,5,1,52.,24.0,3.,24.0,0.,24.0,0.,24.0
1979-07-12 07:31:46.700 ,1,1,25.,24.0,8.,24.0,0.,24.0,0.,24.0
1979-07-12 07:32:10.690 ,2,1,8.,24.0,2.,24.0,0.,24.0,0.,24.0
1979-07-12 07:32:34.690 ,6,1,36.,24.0,14.,24.0,0.,24.0,0.,24.0
1979-07-12 07:32:58.690 ,5,1,38.,24.0,6.,24.0,0.,24.0,0.,24.0
1979-07-12 07:33:22.690 ,1,1,20.,24.0,4.,24.0,0.,24.0,0.,24.0
1979-07-12 07:33:46.690 ,2,1,11.,24.0,1.,24.0,0.,24.0,0.,24.0
1979-07-12 07:34:10.690 ,6,1,29.,24.0,5.,24.0,0.,24.0,0.,24.0
1979-07-12 07:34:34.690 ,5,1,30.,24.0,6.,24.0,0.,24.0,0.,24.0
1979-07-12 07:34:58.690 ,1,1,24.,24.0,6.,24.0,0.,24.0,0.,24.0
1979-07-12 07:35:22.690 ,2,1,9.,24.0,0.,24.0,0.,24.0,0.,24.0
1979-07-12 07:35:46.690 ,6,1,36.,24.0,5.,24.0,0.,24.0,0.,24.0
1979-07-12 07:36:10.690 ,5,1,37.,24.0,5.,24.0,0.,24.0,0.,24.0
1979-07-12 07:36:34.690 ,1,1,12.,24.0,3.,24.0,0.,24.0,0.,24.0
1979-07-12 07:36:58.690 ,2,1,14.,24.0,1.,24.0,0.,24.0,0.,24.0
1979-07-12 07:37:22.690 ,6,1,24.,24.0,7.,24.0,0.,24.0,0.,24.0
1979-07-12 07:37:46.690 ,5,1,21.,24.0,3.,24.0,0.,24.0,0.,24.0
1979-07-12 07:38:10.690 ,1,1,10.,24.0,3.,24.0,0.,24.0,0.,24.0
1979-07-12 07:38:34.690 ,2,1,12.,24.0,0.,24.0,0.,24.0,0.,24.0
1979-07-12 07:38:58.690 ,6,1,18.,24.0,0.,24.0,0.,24.0,0.,24.0
1979-07-12 07:39:22.690 ,5,1,37.,24.0,2.,24.0,0.,24.0,0.,24.0
1979-07-12 07:39:46.690 ,1,1,8.,24.0,5.,24.0,0.,24.0,0.,24.0
1979-07-12 07:40:10.690 ,2,1,7.,24.0,0.,24.0,0.,24.0,0.,24.0
1979-07-12 07:40:34.690 ,6,1,10.,24.0,4.,24.0,0.,24.0,0.,24.0
1979-07-12 07:40:58.690 ,5,1,18.,24.0,1.,24.0,0.,24.0,0.,24.0
1979-07-12 07:41:22.690 ,1,1,21.,24.0,3.,24.0,0.,24.0,0.,24.0
1979-07-12 07:41:46.690 ,0,0,6.,24.0,1.,24.0,0.,24.0,0.,24.0
1979-07-12 07:42:10.690 ,0,0,9.,24.0,3.,24.0,0.,24.0,0.,24.0
1979-07-12 07:42:34.690 ,5,1,18.,24.0,1.,24.0,0.,24.0,0.,24.0
1979-07-12 07:42:58.690 ,5,0,21.,24.0,4.,24.0,0.,24.0,0.,24.0
1979-07-12 07:43:22.690 ,4,1,21.,24.0,1.,24.0,0.,24.0,0.,24.0
1979-07-12 07:43:46.690 ,4,0,14.,24.0,2.,24.0,0.,24.0,0.,24.0
1979-07-12 07:44:10.690 ,3,1,21.,24.0,4.,24.0,0.,24.0,0.,24.0
1979-07-12 07:44:34.690 ,3,0,9.,24.0,1.,24.0,0.,24.0,0.,24.0
1979-07-12 07:44:58.690 ,2,1,7.,24.0,2.,24.0,0.,24.0,0.,24.0
1979-07-12 07:45:22.690 ,2,0,8.,24.0,2.,24.0,0.,24.0,0.,24.0
1979-07-12 07:45:46.690 ,1,1,8.,24.0,2.,24.0,0.,24.0,0.,24.0
1979-07-12 07:46:10.690 ,1,0,9.,24.0,4.,24.0,0.,24.0,0.,24.0
1979-07-12 07:46:34.690 ,0,1,6.,24.0,0.,24.0,0.,24.0,0.,24.0
1979-07-12 07:46:58.690 ,0,0,1.,24.0,1.,24.0,0.,24.0,0.,24.0
1979-07-12 07:47:22.690 ,0,1,6.,24.0,2.,24.0,0.,24.0,0.,24.0
1979-07-12 07:47:46.690 ,0,0,7.,24.0,0.,24.0,0.,24.0,0.,24.0
1979-07-12 07:48:10.690 ,1,1,3.,24.0,0.,24.0,0.,24.0,0.,24.0
1979-07-12 07:48:34.690 ,1,0,11.,24.0,0.,24.0,0.,24.0,0.,24.0
1979-07-12 07:48:58.690 ,2,1,12.,24.0,0.,24.0,0.,24.0,0.,24.0
1979-07-12 07:49:22.690 ,2,0,8.,24.0,2.,24.0,0.,24.0,0.,24.0
1979-07-12 07:49:46.690 ,3,1,13.,24.0,3.,24.0,0.,24.0,0.,24.0
1979-07-12 07:50:10.690 ,3,0,13.,24.0,2.,24.0,0.,24.0,0.,24.0
1979-07-12 07:50:34.690 ,4,1,19.,24.0,3.,24.0,0.,24.0,0.,24.0
1979-07-12 07:50:58.690 ,4,0,13.,24.0,2.,24.0,0.,24.0,0.,24.0
1979-07-12 07:51:22.690 ,5,1,17.,24.0,3.,24.0,0.,24.0,0.,24.0
1979-07-12 07:51:46.690 ,5,0,22.,24.0,3.,24.0,0.,24.0,0.,24.0
1979-07-12 07:52:10.690 ,6,1,13.,24.0,3.,24.0,0.,24.0,0.,24.0
1979-07-12 07:52:34.690 ,6,0,20.,24.0,4.,24.0,0.,24.0,0.,24.0
1979-07-12 07:52:58.690 ,7,1,16.,24.0,2.,24.0,0.,24.0,0.,24.0
1979-07-12 07:53:22.690 ,7,0,33.,24.0,0.,24.0,0.,24.0,0.,24.0
1979-07-12 07:53:46.690 ,7,1,30.,24.0,0.,24.0,0.,24.0,0.,24.0
1979-07-12 07:54:10.690 ,7,0,34.,24.0,0.,24.0,0.,24.0,0.,24.0
1979-07-12 07:54:34.690 ,6,1,19.,24.0,0.,24.0,0.,24.0,0.,24.0
1979-07-12 07:54:58.690 ,6,0,18.,24.0,3.,24.0,0.,24.0,0.,24.0
1979-07-12 07:55:22.690 ,5,1,25.,24.0,7.,24.0,0.,24.0,0.,24.0
1979-07-12 07:55:46.690 ,5,0,17.,24.0,2.,24.0,0.,24.0,0.,24.0
1979-07-12 07:56:10.690 ,4,1,23.,24.0,2.,24.0,0.,24.0,0.,24.0
1979-07-12 07:56:34.690 ,4,0,31.,24.0,4.,24.0,0.,24.0,0.,24.0
1979-07-12 07:56:58.690 ,3,1,20.,24.0,5.,24.0,0.,24.0,0.,24.0
1979-07-12 07:57:22.690 ,3,0,16.,24.0,2.,24.0,0.,24.0,0.,24.0
1979-07-12 07:57:46.690 ,2,1,10.,24.0,1.,24.0,0.,24.0,0.,24.0
1979-07-12 07:58:10.690 ,2,0,16.,24.0,1.,24.0,0.,24.0,0.,24.0
1979-07-12 07:58:34.690 ,1,1,21.,24.0,5.,24.0,0.,24.0,0.,24.0
1979-07-12 07:58:58.690 ,1,0,18.,24.0,1.,24.0,0.,24.0,0.,24.0
1979-07-12 07:59:22.690 ,0,1,8.,24.0,2.,24.0,0.,24.0,0.,24.0
1979-07-12 07:59:46.690 ,0,0,11.,24.0,1.,24.0,0.,24.0,0.,24.0
1979-07-12 08:00:10.690 ,0,1,9.,24.0,2.,24.0,0.,24.0,0.,24.0
1979-07-12 08:00:34.690 ,0,0,5.,24.0,1.,24.0,0.,24.0,0.,24.0
1979-07-12 08:00:58.690 ,1,1,8.,24.0,2.,24.0,0.,24.0,0.,24.0
1979-07-12 08:01:22.690 ,1,0,4.,24.0,2.,24.0,0.,24.0,0.,24.0
1979-07-12 08:01:46.690 ,2,1,9.,24.0,3.,24.0,0.,24.0,0.,24.0
1979-07-12 08:02:10.690 ,2,0,14.,24.0,0.,24.0,0.,24.0,0.,24.0
1979-07-12 08:02:34.690 ,3,1,8.,24.0,5.,24.0,0.,24.0,0.,24.0
1979-07-12 08:02:58.690 ,3,0,8.,24.0,1.,24.0,0.,24.0,0.,24.0
1979-07-12 08:03:22.690 ,4,1,19.,24.0,0.,24.0,0.,24.0,0.,24.0
1979-07-12 08:03:46.690 ,4,0,7.,24.0,2.,24.0,0.,24.0,0.,24.0
1979-07-12 08:04:10.690 ,5,1,19.,24.0,2.,24.0,0.,24.0,0.,24.0
1979-07-12 08:04:34.690 ,5,0,7.,24.0,4.,24.0,0.,24.0,0.,24.0
1979-07-12 08:04:58.690 ,6,1,11.,24.0,1.,24.0,0.,24.0,0.,24.0
1979-07-12 08:05:22.690 ,6,0,10.,24.0,0.,24.0,0.,24.0,0.,24.0
1979-07-12 08:05:46.690 ,7,1,16.,24.0,1.,24.0,0.,24.0,0.,24.0
1979-07-12 08:06:10.690 ,7,0,41.,24.0,0.,24.0,0.,24.0,0.,24.0
1979-07-12 08:06:34.690 ,7,1,34.,24.0,0.,24.0,0.,24.0,0.,24.0
1979-07-12 08:06:58.690 ,7,0,28.,24.0,0.,24.0,0.,24.0,0.,24.0
1979-07-12 08:07:22.690 ,6,1,17.,24.0,0.,24.0,0.,24.0,0.,24.0
1979-07-12 08:07:46.690 ,6,0,7.,24.0,1.,24.0,0.,24.0,0.,24.0
1979-07-12 08:08:10.690 ,5,1,12.,24.0,1.,24.0,0.,24.0,0.,24.0
1979-07-12 08:08:34.690 ,5,0,10.,24.0,0.,24.0,0.,24.0,0.,24.0
1979-07-12 08:08:58.690 ,4,1,16.,24.0,2.,24.0,0.,24.0,0.,24.0
1979-07-12 08:09:22.690 ,4,0,12.,24.0,3.,24.0,0.,24.0,0.,24.0
1979-07-12 08:09:46.690 ,3,1,9.,24.0,1.,24.0,0.,24.0,0.,24.0
1979-07-12 08:10:10.690 ,3,0,8.,24.0,0.,24.0,0.,24.0,0.,24.0
1979-07-12 08:10:34.690 ,2,1,6.,24.0,1.,24.0,0.,24.0,0.,24.0
1979-07-12 08:10:58.690 ,2,0,7.,24.0,0.,24.0,0.,24.0,0.,24.0
1979-07-12 08:11:22.690 ,1,1,8.,24.0,2.,24.0,0.,24.0,0.,24.0
1979-07-12 08:11:46.690 ,1,0,9.,24.0,0.,24.0,0.,24.0,0.,24.0
1979-07-12 08:12:10.690 ,0,1,0.,24.0,1.,24.0,0.,24.0,0.,24.0
1979-07-12 08:12:34.690 ,0,0,1.,24.0,0.,24.0,0.,24.0,0.,24.0
1979-07-12 08:12:58.690 ,0,1,2.,24.0,0.,24.0,0.,24.0,0.,24.0
1979-07-12 08:13:22.690 ,0,0,5.,24.0,0.,24.0,0.,24.0,0.,24.0
1979-07-12 08:13:46.690 ,1,1,6.,24.0,3.,24.0,0.,24.0,0.,24.0
1979-07-12 08:14:10.690 ,1,0,8.,24.0,0.,24.0,0.,24.0,0.,24.0
1979-07-12 08:14:34.690 ,2,1,11.,24.0,2.,24.0,0.,24.0,0.,24.0
1979-07-12 08:14:58.690 ,2,0,11.,24.0,1.,24.0,0.,24.0,0.,24.0
1979-07-12 08:15:22.690 ,3,1,12.,24.0,1.,24.0,0.,24.0,0.,24.0
1979-07-12 08:15:46.690 ,3,0,14.,24.0,0.,24.0,0.,24.0,0.,24.0
1979-07-12 08:16:10.690 ,4,1,11.,24.0,0.,24.0,0.,24.0,0.,24.0
1979-07-12 08:16:34.690 ,4,0,15.,24.0,4.,24.0,0.,24.0,0.,24.0
1979-07-12 08:16:58.690 ,5,1,14.,24.0,4.,24.0,1.,24.0,0.,24.0
1979-07-12 08:17:22.690 ,5,0,15.,24.0,2.,24.0,0.,24.0,0.,24.0
1979-07-12 08:17:46.690 ,6,1,11.,24.0,4.,24.0,0.,24.0,0.,24.0
1979-07-12 08:18:10.690 ,6,0,17.,24.0,4.,24.0,0.,24.0,0.,24.0
1979-07-12 08:18:34.690 ,7,0,17.,24.0,4.,24.0,0.,24.0,0.,24.0
1979-07-12 08:18:58.690 ,7,0,28.,24.0,0.,24.0,0.,24.0,0.,24.0
1979-07-12 08:19:22.690 ,5,1,25.,24.0,1.,24.0,0.,24.0,0.,24.0
1979-07-12 08:19:46.690 ,1,1,15.,24.0,2.,24.0,0.,24.0,0.,24.0
1979-07-12 08:20:10.690 ,2,1,12.,24.0,0.,24.0,0.,24.0,0.,24.0
1979-07-12 08:20:34.690 ,6,1,11.,24.0,6.,24.0,0.,24.0,0.,24.0
1979-07-12 08:20:58.690 ,5,1,21.,24.0,2.,24.0,0.,24.0,0.,24.0
1979-07-12 08:21:22.690 ,1,1,13.,24.0,2.,24.0,0.,24.0,0.,24.0
1979-07-12 08:21:46.690 ,2,1,9.,24.0,2.,24.0,0.,24.0,0.,24.0
1979-07-12 08:22:10.690 ,6,1,10.,24.0,1.,24.0,0.,24.0,0.,24.0
1979-07-12 08:22:34.690 ,5,1,17.,24.0,0.,24.0,0.,24.0,0.,24.0
1979-07-12 08:22:58.690 ,1,1,12.,24.0,2.,24.0,0.,24.0,0.,24.0
1979-07-12 08:23:22.690 ,2,1,6.,24.0,3.,24.0,0.,24.0,0.,24.0
1979-07-12 08:23:46.690 ,6,1,23.,24.0,3.,24.0,0.,24.0,0.,24.0
1979-07-12 08:24:10.690 ,5,1,20.,24.0,1.,24.0,0.,24.0,0.,24.0
1979-07-12 08:24:34.690 ,1,1,20.,24.0,3.,24.0,0.,24.0,0.,24.0
1979-07-12 08:24:58.690 ,2,1,12.,24.0,0.,24.0,0.,24.0,0.,24.0
1979-07-12 08:25:22.690 ,6,1,26.,24.0,5.,24.0,0.,24.0,0.,24.0
1979-07-12 08:25:46.690 ,5,1,26.,24.0,3.,24.0,0.,24.0,0.,24.0
1979-07-12 08:26:10.690 ,1,1,32.,24.0,7.,24.0,0.,24.0,0.,24.0
1979-07-12 08:26:34.690 ,2,1,20.,24.0,3.,24.0,0.,24.0,0.,24.0
1979-07-12 08:26:58.690 ,6,1,30.,24.0,7.,24.0,0.,24.0,0.,24.0
1979-07-12 08:27:22.690 ,5,1,35.,24.0,4.,24.0,0.,24.0,0.,24.0
1979-07-12 08:27:46.690 ,1,1,33.,24.0,3.,24.0,0.,24.0,0.,24.0
1979-07-12 08:28:10.690 ,2,1,27.,24.0,5.,24.0,0.,24.0,0.,24.0
1979-07-12 08:28:34.690 ,0,0,27.,24.0,3.,24.0,0.,24.0,0.,24.0
1979-07-12 08:28:58.690 ,0,0,,0,,0,,0,,0
1979-07-12 08:29:22.690 ,1,1,34.,24.0,4.,24.0,0.,24.0,0.,24.0
1979-07-12 08:29:46.690 ,0,0,18.,24.0,4.,24.0,0.,24.0,0.,24.0
1979-07-12 08:30:10.690 ,0,0,36.,24.0,4.,24.0,0.,24.0,0.,24.0
1979-07-12 08:30:34.690 ,5,1,39.,24.0,4.,24.0,0.,24.0,0.,24.0
1979-07-12 08:30:58.690 ,5,0,34.,24.0,6.,24.0,0.,24.0,0.,24.0
1979-07-12 08:31:22.690 ,4,1,37.,24.0,3.,24.0,0.,24.0,0.,24.0
1979-07-12 08:31:46.690 ,4,0,23.,24.0,3.,24.0,0.,24.0,0.,24.0
1979-07-12 08:32:10.690 ,3,1,24.,24.0,2.,24.0,0.,24.0,0.,24.0
1979-07-12 08:32:34.690 ,3,0,21.,24.0,3.,24.0,0.,24.0,0.,24.0